Location: Gälforsberget
(66.6500°N, 22.4167°E)
Time: 11:56:43
(UTC+00:00)

Cosmos 371 Rocket - Pass Details

Date: 11 April 2026
Orbit: 674 x 689 km, 74.0° (Epoch: 10 May)

Event Time Altitude Azimuth Distance (km) Brightness Sun altitude
Rises 21:13:41 0° 316° (NW) 3,062 7.9 -13.5°
Reaches altitude 10° 21:16:00 10° 316° (NW) 2,146 6.9 -13.5°
Maximum altitude 21:20:51 85° 229° (SW) 700 3.3 -13.7°
Enters shadow 21:24:16 20° 142° (SE) 1,598 4.6 -13.8°
